www.pogodaiklimat.ru

Погода и климат >> Архив погоды >> Турция >> Килис


ПОГОДА в Килисе

  • Прогноз погоды в Килисе
  • Монитор погоды в Килисе

АРХИВ ПОГОДЫ в Килисе

Время (UTC), дата Ветер
(напр.,м/с)
 
Видим.   Явления Облачность Т
(С)
Тd
(С)
f
(%)
Тe
(С)
Тes
(С)
Комфортность P
(гПа)
Po
(гПа)
Тmin
(С)
Tmax
(С)
R
(мм)
R24
(мм)
S
(см)
06 10.07 З 3
{7}
20 км ясно +28.6 +12.4 37 +30 +39 жарко 1003.4 933.2 +24.0
07 10.07 З 3 20 км ясно +30.9 +10.5 28 +31 +44 жарко 1002.8 932.9
08 10.07 З 3 20 км ясно +33.4 +6.7 19 +31 +46 жарко 1002.3 932.6
09 10.07 СЗ 1
{6}
20 км ясно +35.2 +2.0 12 +32 +56 опасность
солнечного
удара
1001.8 932.3
10 10.07 С 1 20 км ясно +36.3 +1.8 12 +33 +57 опасность
солнечного
удара
1001.1 931.6
11 10.07 З 2 20 км ясно +36.6 +5.2 14 +34 +52 опасность
солнечного
удара
1000.5 931.0
12 10.07 З 3
{7}
20 км ясно +36.3 +5.0 14 +33 +47 жарко 1000.0 930.6
13 10.07 З 3 20 км ясно +36.2 +5.2 15 +34 +43 очень
жарко
999.8 930.3
14 10.07 З 3 20 км ясно +35.7 +6.1 16 +33 +39 жарко 999.7 930.1
15 10.07 З 4
{8}
20 км ясно +34.0 +10.3 24 +33 +35 жарко 999.9 930.1
16 10.07 З 4 20 км ясно +31.5 +13.3 33 +33 +33 жарко 1000.5 930.3
17 10.07 З 4 20 км ясно +30.0 +14.9 40 +32 +32 жарко 1000.7 930.6
18 10.07 З 4
{11}
20 км ясно +28.5 +14.1 41 +30 +30 жарко 1000.9 930.9 +37.2
21 10.07 З 4
{8}
20 км ясно +25.8 +14.1 48 +28 +28 жарко 1000.4 930.8
00 11.07 З 3
{8}
20 км ясно +25.3 +13.5 48 +27 +27 жарко 999.3 929.9
03 11.07 З 3
{6}
20 км ясно +22.8 +14.3 59 +26 +27 жарко 1000.2 930.2
06 11.07 З 3
{7}
20 км ясно +28.5 +13.5 40 +30 +39 жарко 1001.3 931.2 +22.8
07 11.07 З 4 20 км ясно +31.2 +12.8 32 +32 +43 жарко 1001.3 931.4
08 11.07 З 3 20 км ясно +33.6 +11.9 27 +34 +49 очень
жарко
1001.1 931.4
09 11.07 З 3
{8}
20 км ясно +35.1 +8.2 19 +33 +52 опасность
солнечного
удара
1000.8 931.2
10 11.07 З 3 20 км 4/4 1000 м
[Cu med, cong]
+34.4 +12.5 27 +35 +46 очень
жарко
1000.5 930.8
11 11.07 З 3 20 км 4/4 1000 м
[Cu med, cong]
+35.8 +9.4 20 +34 +43 очень
жарко
999.4 930.0
12 11.07 З 5
{9}
20 км 4/4 1050 м
[Cu med, cong]
+35.2 +11.1 23 +35 +40 очень
жарко
999.3 929.8
13 11.07 З 5 20 км ясно +34.8 +11.8 25 +35 +41 очень
жарко
999.5 929.7
14 11.07 ЮЗ 5 20 км ясно +33.8 +10.0 23 +33 +36 жарко 999.6 929.6
15 11.07 З 5
{10}
20 км ясно +32.1 +12.7 31 +33 +34 жарко 999.8 929.6
16 11.07 З 6 20 км ясно +30.0 +13.7 37 +32 +32 жарко 1000.6 930.2
17 11.07 З 5 20 км ясно +28.2 +15.0 45 +31 +31 душно 1001.2 930.8
18 11.07 З 5
{11}
20 км ясно +27.7 +13.6 42 +30 +30 жарко 1001.4 931.2 +36.1
21 11.07 З 3
{8}
20 км ясно +25.3 +15.7 55 +28 +28 жарко 1001.8 932.1
00 12.07 З 3
{8}
20 км ясно +23.9 +16.7 64 +27 +27 жарко 1001.6 931.7
03 12.07 З 3
{6}
20 км ясно +22.9 +16.7 68 +28 +28 душно 1002.6 932.2
06 12.07 З 3
{7}
20 км ясно +26.8 +16.9 55 +31 +40 душно 1003.5 933.0 +22.9
07 12.07 ЮЗ 3 20 км ясно +28.5 +16.1 47 +32 +44 душно 1003.6 933.1
08 12.07 ЮЗ 4 20 км ясно +30.0 +13.5 36 +31 +43 жарко 1003.6 933.2
09 12.07 З 4
{8}
20 км ясно +31.2 +13.2 33 +32 +47 жарко 1003.4 933.1
10 12.07 З 3 20 км 4/4 1000 м
[Cu hum]
+32.1 +11.0 27 +32 +42 жарко 1002.9 932.7
11 12.07 З 4 20 км 4/4 1000 м
[Cu hum]
+31.3 +11.3 29 +31 +40 жарко 1002.9 932.5
12 12.07 З 4
{10}
20 км 3/3 1050 м
[Cu hum]
+32.5 +11.3 27 +32 +39 жарко 1002.5 932.3
13 12.07 ЮЗ 4 20 км 3/3 1000 м
[Cu hum]
+32.4 +9.9 25 +32 +36 жарко 1002.5 932.2
14 12.07 З 5 20 км ясно +31.0 +13.3 34 +32 +36 жарко 1002.5 932.0
15 12.07 З 5
{9}
20 км ясно +29.4 +14.6 41 +32 +33 душно 1003.2 932.4
16 12.07 З 4 20 км ясно +28.0 +12.2 38 +29 +29 жарко 1003.5 932.7
17 12.07 З 4 20 км ясно +25.8 +14.1 48 +28 +28 жарко 1003.7 932.8
18 12.07 З 4
{9}
20 км ясно +25.1 +14.4 51 +28 +28 жарко 1004.1 933.2 +32.9
06 13.07 З 4
{8}
20 км ясно +25.8 +14.9 51 +29 +35 душно 1005.5 934.4 +21.3
07 13.07 З 4 20 км ясно +27.6 +13.8 43 +30 +39 жарко 1005.4 934.4
08 13.07 З 4 20 км ясно +29.4 +12.9 36 +31 +44 жарко 1005.2 934.4
09 13.07 З 3
{9}
20 км ясно +31.5 +8.7 24 +30 +49 жарко 1004.7 934.0
10 13.07 З 3 20 км ясно +31.3 +10.0 27 +31 +49 жарко 1004.2 933.5
11 13.07 ЮЗ 3 20 км 4/4 1000 м
[Cu hum]
+30.6 +12.3 33 +31 +40 жарко 1004.1 933.3
12 13.07 З 5-10
{10}
20 км 6/6 1050 м
[Cu med, cong]
+27.5 +13.8 43 +30 +33 жарко 1005.3 934.0
13 13.07 З 3 20 км 5/5 1000 м
[Cu med, cong]
+28.8 +10.8 33 +29 +34 жарко 1004.8 933.7
14 13.07 З 3 20 км 8/6 1000 м
[Cu med, cong Ac und]
+27.9 +11.7 37 +29 +30 жарко 1005.2 933.9
15 13.07 ЮЗ 3
{9}
20 км 8/5 1050 м
[Cu med, cong Ac und]
+26.1 +14.2 48 +28 +29 жарко 1005.2 933.7
16 13.07 З 4 20 км 5/5 1000 м
[Cu med, cong]
+26.9 +12.2 40 +28 +28 жарко 1004.9 933.6
17 13.07 З 5 20 км 4/4 1000 м
[Cu med, cong]
+24.3 +11.3 44 +26 +26 жарко 1005.1 933.7
18 13.07 З 6
{9}
20 км 4/4 1050 м
[Cu med, cong]
+23.2 +12.5 51 +26 +26 жарко 1005.5 934.2 +32.1
06 14.07 З 3
{6}
20 км ясно +25.6 +13.2 46 +28 +37 жарко 1006.4 935.0 +18.5
07 14.07 З 2 20 км ясно +27.2 +12.5 40 +29 +43 жарко 1006.2 935.0
08 14.07 З 2 20 км ясно +29.6 +9.7 29 +29 +49 жарко 1005.8 934.8
09 14.07 З 2
{6}
20 км ясно +30.1 +9.6 28 +30 +50 жарко 1005.4 934.5
10 14.07 ЮЗ 2 20 км ясно +31.4 +11.7 30 +32 +52 опасность
солнечного
удара
1004.8 934.0
11 14.07 ЮЗ 4 20 км 4/4 1000 м
[Cu hum]
+30.6 +11.7 31 +31 +39 жарко 1004.4 933.6
12 14.07 З 4
{8}
20 км 3/3 1050 м
[Cu hum]
+31.4 +10.4 27 +31 +39 жарко 1004.2 933.4
13 14.07 ЮЗ 4 20 км 3/3 1000 м
[Cu hum]
+31.2 +8.4 24 +30 +35 жарко 1004.2 933.3
14 14.07 ЮЗ 4 20 км ясно +30.2 +10.7 30 +30 +35 жарко 1004.2 933.1
15 14.07 ЮЗ 3
{9}
20 км ясно +29.5 +10.3 30 +30 +31 жарко 1004.1 932.9
16 14.07 ЮЗ 4 20 км ясно +28.1 +12.0 37 +29 +30 жарко 1004.2 933.1
17 14.07 З 3 20 км ясно +25.9 +14.5 49 +28 +28 жарко 1004.5 933.3
18 14.07 З 3
{9}
20 км ясно +24.5 +14.4 53 +27 +27 жарко 1004.6 933.5 +32.1
06 15.07 З 3
{6}
20 км 4/4 1050 м
[Cu med, cong]
+24.2 +16.0 60 +27 +32 жарко 1005.2 933.9 +19.9
08 15.07 З 3 20 км 5/5 1000 м
[Cu med, cong]
+27.0 +13.1 42 +29 +37 жарко 1005.4 934.0
09 15.07 ЮЗ 2
{8}
20 км 5/5 1050 м
[Cu med, cong]
+28.0 +12.0 37 +29 +39 жарко 1004.9 933.6
10 15.07 З 4 20 км 5/5 1000 м
[Cu hum]
+29.2 +10.9 32 +30 +37 жарко 1004.3 933.3
11 15.07 ЮЗ 4 20 км 5/5 1000 м
[Cu med, cong]
+30.3 +9.4 27 +30 +37 жарко 1004.2 933.2
12 15.07 З 4
{9}
20 км 4/4 1050 м
[Cu med, cong]
+29.2 +11.2 33 +30 +36 жарко 1004.3 933.1
13 15.07 З 5 20 км 4/4 1000 м
[Cu hum]
+29.9 +8.7 27 +29 +33 жарко 1004.1 933.0
14 15.07 З 4 20 км 4/4 1000 м
[Cu med, cong]
+29.0 +9.8 30 +29 +31 жарко 1004.3 933.1
15 15.07 З 4
{10}
20 км ясно +28.3 +9.6 31 +28 +30 жарко 1004.5 933.2
16 15.07 З 4 20 км ясно +26.9 +10.7 36 +28 +28 жарко 1005.0 933.6
17 15.07 З 4 20 км ясно +25.1 +10.3 39 +26 +26 жарко 1005.8 934.2
18 15.07 З 3
{10}
20 км ясно +24.4 +9.2 38 +25 +25 комфорт 1005.8 934.4 +30.7
06 16.07 З 3
{6}
20 км ясно +25.7 +13.7 47 +28 +37 жарко 1006.1 934.9 +20.0
07 16.07 З 3 20 км ясно +27.5 +12.5 39 +29 +42 жарко 1006.0 934.9
08 16.07 З 4 20 км ясно +28.7 +10.8 33 +29 +43 жарко 1006.1 935.0
09 16.07 З 2
{7}
20 км 4/4 1050 м
[Cu hum]
+29.8 +11.2 32 +30 +42 жарко 1005.6 934.6
10 16.07 З 3 20 км 5/5 1000 м
[Cu hum]
+29.6 +11.5 33 +30 +39 жарко 1005.1 934.0
11 16.07 ЮЗ 3 20 км 5/5 1000 м
[Cu hum]
+31.1 +10.7 28 +31 +39 жарко 1004.4 933.6
12 16.07 ЮЗ 4
{8}
20 км 6/4 1050 м
[Cu med, cong Ac und]
+30.2 +11.0 31 +31 +36 жарко 1004.4 933.5
13 16.07 СЗ 1 20 км 5/5 1000 м
[Cu med, cong]
+27.7 +12.5 39 +29 +35 жарко 1004.9 933.6
14 16.07 ЮЗ 4 20 км 3/3 1000 м
[Cu hum]
+30.1 +11.4 32 +31 +33 жарко 1004.3 933.3
15 16.07 З 4
{9}
20 км 3/3 1050 м
[Cu hum]
+28.4 +11.6 35 +29 +30 жарко 1004.3 933.1
16 16.07 ЮЗ 5 20 км ясно +27.1 +11.3 37 +28 +28 жарко 1004.4 933.2
17 16.07 З 4 20 км ясно +25.6 +9.8 37 +26 +26 жарко 1004.6 933.4
18 16.07 З 3
{9}
20 км ясно +24.3 +11.4 44 +26 +26 жарко 1005.0 933.8 +31.8

 

Местоположение метеостанции Килис (Турция): широта 36.72 долгота 37.11 высота над уровнем моря 638 м.

В архиве по умолчанию представлена погода в Килисе за последнюю неделю. Архивные данные за месяц целиком и за предыдущие месяцы, начиная с января 2011 года, Вы можете получить, выбрав интересующий диапазон дат из раскрывающегося списка и нажав кнопку "Ввод!".


*Определитесь, кто Вы:
робот инопланетянин человек

Внимание! Время в таблицах - всемирное. Для получения местного времени необходимо прибавить поправку, которая равна 2 ч.

Смотрите также архив погоды в соседних городах и на ближайших метеорологических станциях:

Погода в Газиантепе (Турция) (43 км)
Погода в Газиантепе (Турция) (46 км)
Погода в Алеппо (Сирия) (61 км)
Погода в Искендеруне (Турция) (85 км)
Погода в Османие (Турция) (87 км)
Погода в Кахраманмараше (Турция) (99 км)
Погода в Инджирлике (Турция) (153 км)
Погода в Адыямане (Турция) (154 км)
Погода в Шанлыурфе (Турция) (154 км)
Погода в Адане (Турция) (164 км)

Пояснения к столбцам:

Ветер - указаны скорость ветра в м/с - средняя за 10 мин, порывы в срок и между сроками (в фигурных скобках) и направление, откуда дует ветер: С - северный, СВ - северо-восточный, В - восточный, ЮВ - юго-восточный, Ю - южный, ЮЗ - юго-западный, З - западный, СЗ - северо-западный.
Видимость - горизонтальная дальность видимости в метрах или километрах. При видимости от 1 до 10 км при отсутствии осадков обычно наблюдается дымка, при ухудшении видимости до 1 км и менее - туман. В сухую погоду видимость может ухудшаться дымом, пылью или мглою.
Явления - указаны атмосферные явления, наблюдавшиеся в срок или в последний час перед сроком; фигурными скобками обозначены явления, наблюдавшиеся между сроками (за 1-3 часа до срока); квадратными скобками обозначены град или гололедные отложения с указанием их диаметра в мм.
Облачность - указаны через наклонную черту общая и нижняя облачность в баллах и высота нижней границы облаков в метрах; квадратными скобками обозначены формы облаков: Ci - перистые, Cs - перисто-слоистые, Cc - перисто-кучевые, Ac - высококучевые, As - высокослоистые, Sc - слоисто-кучевые, Ns - слоисто-дождевые, Cu - кучевые, Cb - кучево-дождевые. Подробнее классификацию облаков см. в Атласе облаков (PDF).
T - Температура воздуха - температура, измеренная на высоте 2 м над землей.
Td - Температура точки росы - температура, при понижении до которой содержащийся в воздухе водяной пар достигнет насыщения.
f - Относительная влажность воздуха - влажноcть воздуха, измеренная на высоте 2 м над землей.
Te - Эффективная температура - температура, которую ощущает одетый по сезону человек в тени. Характеристика душности погоды. При расчете учитывается влияние влажности воздуха и скорости ветра на теплоощущения человека.
Tes - Эффективная температура на солнце - температура, которую ощущает человек, с поправкой на солнечный нагрев. Характеристика знойности погоды. Зависит от высоты солнца над горизонтом, облачности и скорости ветра. Ночью, в пасмурную погоду, а также при ветре 12 м/с и более поправка равна нулю.
P - Атмосферное давление - приведенное к уровню моря атмосферное давление.
Po - Атмосферное давление - измеренное на уровне метеостанции атмосферное давление.
Tmin - Минимальная температура - минимум температуры воздуха на высоте 2 м над землей.
Tmax - Максимальная температура - максимум температуры воздуха на высоте 2 м над землей.
R - Количество осадков - Количество выпавших осадков за период времени, мм. При наведении курсора мыши на число - период времени, за который выпало указанное количество осадков.
R24 - Количество осадков - Количество выпавших осадков за 24 часа, мм.
S - Снежный покров - Высота снежного покрова, см. При наведении курсора мыши на число - состояние снежного покрова и степень покрытия местности в баллах.